Meteo Giornale » Osservazioni meteo Malaysia » Kota Kinabalu
ore: 15:30 - Osservazioni Meteo Kota Kinabalu
Lat. 5° 56' N Lon. 116° 3' E Alt. 3 metri s.l.m.
32 °C
Foschia
Temp. 24 Ore
23 °C
33 °C
Ovest/Nord-Ovest
13 Km/h
Dew point 28 °C
Umidità 79 %
Visibilità 3 Km
Il sole sorge alle ore 06:08
Il sole tramonta alle ore 18:22
| Data e Ora | Cielo e Fenomeni | T °C | DP °C | Um. % | Pres. hPa | Vis. km | Vento km/h | |
|---|---|---|---|---|---|---|---|---|
| Oggi h: 15:30 | Foschia | 32 | 28 | 79 | 1008 | 3 | O/NO 13 | |
| Oggi h: 15:00 | Foschia | 33 | 27 | 70 | 1008 | 3 | O/NO 16.7 | |
| Oggi h: 14:30 | Foschia | 33 | 27 | 70 | 1008 | 3 | O/NO 14.8 | |
| Oggi h: 14:00 | Foschia | 33 | 27 | 70 | 1009 | 3 | O 14.8 | |
| Oggi h: 13:30 | Foschia | 32 | 27 | 74 | 1009 | 3 | O 13 | |
| Oggi h: 13:00 | Foschia | 32 | 27 | 74 | 1009 | 3 | O 9.3 | |
| Oggi h: 12:30 | Foschia | 32 | 27 | 74 | 1010 | 3 | O/SO 11.1 | |
| Oggi h: 12:00 | Foschia | 32 | 27 | 74 | 1010 | 3 | O/SO 9.3 | |
| Oggi h: 11:30 | Foschia | 32 | 26 | 70 | 1011 | 3 | SO 9.3 | |
| Oggi h: 11:00 | Foschia | 32 | 27 | 74 | 1011 | 3 | SO 9.3 | |
| Oggi h: 10:30 | Foschia | 31 | 26 | 74 | 1011 | 3 | SO 9.3 | |
| Oggi h: 10:00 | Foschia | 31 | 25 | 70 | 1011 | 3 | S/SE 14.8 | |
| Oggi h: 09:57 | Foschia | 31 | 25 | 70 | 1011 | 3 | S/SE 14.8 | |
| Oggi h: 09:30 | Foschia | 30 | 26 | 79 | 1011 | 4 | SO 7.4 | |
| Oggi h: 09:00 | Foschia | 29 | 25 | 79 | 1012 | 4 | N 1.8 | |
| Oggi h: 08:30 | Foschia | 28 | 25 | 83 | 1011 | 4 | N 3.7 | |
| Oggi h: 08:00 | Foschia | 27 | 24 | 83 | 1011 | 4 | E/SE 7.4 | |
| Oggi h: 07:30 | Foschia | 26 | 24 | 88 | 1010 | 4 | SE 7.4 | |
| Oggi h: 07:00 | Foschia | 25 | 24 | 94 | 1010 | 4 | N 5.5 | |
| Oggi h: 06:30 | Foschia | 25 | 24 | 94 | 1010 | 5 | N 3.7 | |
| Oggi h: 06:25 | Foschia | 25 | 24 | 94 | 1010 | 5 | N 5.5 | |
| Oggi h: 06:00 | Poco Nuvoloso | 25 | 23 | 88 | 1010 | 8 | E 9.3 | |
| Oggi h: 05:30 | Poco Nuvoloso | 25 | 23 | 88 | 1010 | 10 | E/SE 9.3 | |
| Oggi h: 05:00 | Poco Nuvoloso | 25 | 23 | 88 | 1010 | 10 | E/SE 9.3 | |
| Oggi h: 04:30 | Poco Nuvoloso | 25 | 23 | 88 | 1010 | 10 | E/SE 7.4 | |
| Oggi h: 04:00 | Poco Nuvoloso | 25 | 23 | 88 | 1010 | 10 | N 5.5 | |
| Oggi h: 03:30 | Poco Nuvoloso | 24 | 23 | 94 | 1010 | 10 | E/SE 9.3 | |
| Oggi h: 03:00 | Poco Nuvoloso | 24 | 23 | 94 | 1009 | 10 | E/SE 9.3 | |
| Oggi h: 02:30 | Poco Nuvoloso | 24 | 23 | 94 | 1010 | 10 | E/SE 9.3 | |
| Oggi h: 02:00 | Poco Nuvoloso | 24 | 23 | 94 | 1010 | 10 | E/SE 7.4 | |
| Oggi h: 01:30 | Poco Nuvoloso | 24 | 23 | 94 | 1010 | 10 | E/SE 7.4 | |
| Oggi h: 01:00 | Poco Nuvoloso | 24 | 23 | 94 | 1010 | 10 | E 9.3 | |
| Oggi h: 00:30 | Poco Nuvoloso | 24 | 23 | 94 | 1011 | 10 | E/SE 9.3 | |
| Oggi h: 00:00 | Pioggia | 24 | 22 | 88 | 1011 | 10 | E/SE 14.8 | |
| Ieri h: 23:30 | Pioggia | 24 | 22 | 88 | 1011 | 10 | E 11.1 | |
| Ieri h: 23:25 | Pioggia | 24 | 22 | 88 | 1011 | 10 | E 11.1 | |
| Ieri h: 23:00 | Temporale | 23 | 22 | 94 | 1012 | 9 | E/SE 7.4 | |
| Ieri h: 22:30 | Temporale | 23 | 22 | 94 | 1012 | 10 | SE 16.7 | |
| Ieri h: 22:00 | Temporale | 23 | 22 | 94 | 1012 | 6 | S/SE 16.7 | |
| Ieri h: 21:50 | Temporale | 23 | 22 | 94 | 1012 | 6 | S/SO 25.9 | |
| Ieri h: 21:35 | Temporale | 24 | 22 | 88 | 1012 | 5 | S 40.7 | |
| Ieri h: 21:30 | Pioggia | 26 | 22 | 78 | 1012 | 6 | S 40.7 | |
| Ieri h: 21:18 | Foschia | 30 | 26 | 79 | 1011 | 3 | SO 11.1 | |
| Ieri h: 21:00 | Foschia | 30 | 27 | 84 | 1010 | 3 | O/SO 9.3 | |
| Ieri h: 20:30 | Foschia | 30 | 27 | 84 | 1010 | 3 | O/SO 11.1 | |
| Ieri h: 20:20 | Foschia | 30 | 27 | 84 | 1010 | 3 | O/SO 11.1 | |
| Ieri h: 20:00 | Temporale Foschia | 30 | 27 | 84 | 1009 | 3 | O 13 | |
| Ieri h: 19:30 | Temporale Foschia | 30 | 27 | 84 | 1010 | 3 | O 14.8 | |
| Ieri h: 19:00 | Temporale Foschia | 31 | 27 | 79 | 1009 | 3 | O 13 | |
| Ieri h: 18:52 | Temporale Foschia | 31 | 27 | 79 | 1009 | 3 | O 14.8 | |
| Ieri h: 18:40 | Foschia | 31 | 27 | 79 | 1009 | 3 | O 16.7 | |
| Ieri h: 18:30 | Foschia | 31 | 27 | 79 | 1009 | 5 | O 14.8 | |
| Ieri h: 18:00 | Foschia | 31 | 27 | 79 | 1008 | 5 | O 13 | |
| Ieri h: 17:30 | Foschia | 31 | 27 | 79 | 1008 | 5 | O/SO 11.1 | |
| Ieri h: 17:00 | Foschia | 32 | 27 | 74 | 1008 | 5 | O 13 | |



